Location: Chuathbaluk
(61.5726°N, 159.2454°W)
Time: 17:25:50
(UTC+00:00)

ZACube-1 - Pass Details

Date: 23 January 2021
Orbit: 583 x 666 km, 97.6° (Epoch: 04 March)

Event Time Altitude Azimuth Distance (km) Brightness Sun altitude
Rises 15:46:15 0° 17° (NNE) 3,026 ? -24.3°
Reaches altitude 10° 15:48:33 10° 22° (NNE) 2,108 ? -24.0°
Maximum altitude 15:53:06 57° 101° (ESE) 788 ? -23.5°
Drops below altitude 10° 15:57:34 10° 181° (S) 2,072 ? -23.0°
Sets 15:59:48 0° 185° (S) 2,969 ? -22.7°
